Regional Weather Roundup
Issued by NWS

Home | Current Version | Previous Version | Graphics & Text | Print | Product List | Glossary On
Versions: 1 2 3 4 5 6 7 8 9 10 11 12 13 14 15 16 17 18 19 20 21 22 23 24 25 26 27 28 29 30 31 32 33 34 35 36 37 38 39 40 41 42 43 44 45 46 47 48 49 50
000
ASUS43 KMKX 301400
RWRWI

WISCONSIN REGIONAL WEATHER ROUNDUP
NATIONAL WEATHER SERVICE MILWAUKEE/SULLIVAN WI
900 AM CDT SUN APR 30 2017

NOTE: "FAIR" INDICATES FEW OR NO CLOUDS BELOW 12,000 FEET WITH NO
SIGNIFICANT WEATHER AND/OR OBSTRUCTIONS TO VISIBILITY.

WIZ001-002-006>008-014>016-023>028-301500-
NORTHWEST WISCONSIN

CITY           SKY/WX    TMP DP  RH WIND       PRES   REMARKS
SUPERIOR ARPT  CLOUDY    38  30  72 NE12G18   30.13F WCI  31
ASHLAND        CLOUDY    40  29  64 NE10      30.12F WCI  33
HAYWARD        CLOUDY    41  24  51 NE7       30.06F
SIREN          CLOUDY    40  23  49 NE9       30.06F WCI  34
CUMBERLAND     CLOUDY    41  23  48 NE9G16    30.03F
RICE LAKE      CLOUDY    42  24  48 NE12      30.03F
CHETEK         NOT AVBL
LADYSMITH      CLOUDY    43  26  51 NE13G18   30.04F
EAU CLAIRE     NOT AVBL
MENOMONIE      CLOUDY    43  26  51 NE9       30.02R
NEW RICHMOND   CLOUDY    42  24  48 NE9       30.02S
OSCEOLA        CLOUDY    43  25  49 NE10      30.06S
$$

WIZ003>005-009-010-017-018-301500-
NORTH CENTRAL WISCONSIN

CITY           SKY/WX    TMP DP  RH WIND       PRES   REMARKS
MANITOWISH WTR NOT AVBL
ARBOR VITAE    MOSUNNY   42  27  55 E12G18    30.04F
WOODRUFF       MOSUNNY   42  27  55 E12G18    30.04F
RHINELANDER    CLOUDY    43  30  60 E14       30.03F
EAGLE RIVER    MOSUNNY   42  27  55 E15       30.07F
LAND O LAKES   CLOUDY    43  27  53 E15G21    30.10F
PHILLIPS       CLOUDY    41  26  54 E10G16    30.03F
TOMAHAWK       CLOUDY    39  27  62 E12G17    30.03F WCI  32
MEDFORD        CLOUDY    39  28  64 NE17G23   30.00F WCI  30
MERRILL        CLOUDY    41  30  65 E13G22    30.02F
$$

WIZ029-030-035-036-043>047-301500-
CENTRAL WISCONSIN

CITY           SKY/WX    TMP DP  RH WIND       PRES   REMARKS
WAUSAU         CLOUDY    42  32  67 E20G26    30.01S
MOSINEE        CLOUDY    39  32  75 E20G25    30.01F WCI  30
MARSHFIELD     CLOUDY    41  31  67 E14       29.99S
STEVENS POINT  CLOUDY    38  32  78 E16G28    30.00F WCI  29
WAUPACA        CLOUDY    41  38  89 NE13G20   30.02F FOG
WAUTOMA        CLOUDY    40  38  93 NE18G29   29.98S WCI  31
WISC RAPIDS    CLOUDY    41  35  79 E16G25    30.00R
CAMP DOUGLAS   NOT AVBL
$$

WIZ011>013-019>022-031-037>040-048>050-301500-
NORTHEAST WISCONSIN

CITY           SKY/WX    TMP DP  RH WIND       PRES   REMARKS
ANTIGO         CLOUDY    39  32  73 E21G29    30.03F WCI  29
SHAWANO        CLOUDY    42  37  80 E16G25    30.05F
OCONTO         NOT AVBL
STURGEON BAY   LGT RAIN  38  36  92 NE14G23   30.06F FOG     WCI  30
GREEN BAY      CLOUDY    41  40  96 E14G25    30.04S FOG
MANITOWOC      NOT AVBL
APPLETON       CLOUDY    39  37  93 NE20G30   29.99F FOG     WCI  30
CLINTONVILLE   CLOUDY    39  36  87 E16G24    30.03F WCI  30
OSHKOSH        CLOUDY    41  38  89 NE18G29   29.97F
$$

WIZ032>034-041-042-053>061-301500-
SOUTHWEST WISCONSIN

CITY           SKY/WX    TMP DP  RH WIND       PRES   REMARKS
LA CROSSE      CLOUDY    44  33  65 E13G21    29.96R
SPARTA         CLOUDY    42  34  73 E18G25    29.97R
VIROQUA        CLOUDY    39  36  87 NE16G24   29.93R WCI  31
BOSCOBEL       CLOUDY    42  38  85 E9        29.91F
PRAIRIE DU CHI CLOUDY    41  36  82 NE8G20    29.90F
PLATTEVILLE    CLOUDY    41  41 100 NE18      29.87F
$$

WIZ056-057-062-063-064-067-068-301500-
SOUTH CENTRAL WISCONSIN

CITY           SKY/WX    TMP DP  RH WIND       PRES   REMARKS
REEDSBURG      NOT AVBL
BARABOO/DELLS  CLOUDY    39  37  95 E16G22    29.92F FOG     WCI  30
LONE ROCK      CLOUDY    41  37  87 E14       29.92S FOG
MINERAL POINT  CLOUDY    41  41 100 NE15G24   29.89S FOG
MADISON        DRIZZLE   40  39  97 NE16G24   29.89S FOG     WCI  31
MIDDLETON      CLOUDY    41  41  99 NE16G22   29.91S
WATERTOWN      CLOUDY    40  40 100 E16G25    29.89F WCI  32
MONROE         CLOUDY    39  37  93 NE20G28   29.84F WCI  30
JANESVILLE     CLOUDY    43  43 100 E13G30    29.88
$$

WIZ051-052-058>065-066-070>072-301500-
SOUTHEAST WISCONSIN

CITY           SKY/WX    TMP DP  RH WIND       PRES   REMARKS
MILWAUKEE      DRZL/FOG  42  41  96 NE20G25   29.89F VSB 1
WAUKESHA       LGT RAIN  37  37 100 NE17G26   29.88F FOG     WCI  28
MILWAUKEE/TIMM LGT RAIN  39  37  93 NE14G21   29.91F WCI  31
RACINE         CLOUDY    41  39  93 NE16G25   29.88F
KENOSHA        CLOUDY    41  40  96 E18       29.85F
FOND DU LAC    CLOUDY    41  37  86 E16G29    29.96F FOG
SHEBOYGAN      LGT RAIN  39  38  96 NE21G28   29.97F FOG     WCI  29
WEST BEND      LGT RAIN  37  37 100 E23G30    29.93F WCI  26
JUNEAU         CLOUDY    39  38  94 NE15G25   29.93F FOG     WCI  31
$$

LSZ147-162-301500-
LAKE SUPERIOR

STATION/POSITION TIME  TEMP    WIND        PRES    WAVE
                       AIR SEA DIR/SP/G            HT/PER
                 (UTC) (F)     (DEG/KT/KT) (MB)    (FT/S)
DEVILS ISLAND    1300   38      50/ 20/ 22 1022.3F
SAXON HARBOR     1240   38      50/  6/  7 1020.7F
$$

LMZ867-665-643>646-301500-
LAKE MICHIGAN

STATION/POSITION TIME  TEMP    WIND        PRES    WAVE
                       AIR SEA DIR/SP/G            HT/PER
                 (UTC) (F)     (DEG/KT/KT) (MB)    (FT/S)
CHAMBERS ISLAND  1240   40      50/ 12/ 20 1020.3S
N MID LAKE BUOY  1250   38 37   80/ 21/ 27 1021.9F   3/ 4
NORTHPORT PIER   1240   40      70/ 19/ 24 1021.0F
SISTER BAY       1206   41     110/ 12/ 22   N/A
KEWAUNEE LAKESHO 1330   39      50/ 15/ 23 1016.5F
SHEBOYGAN LAKESH 1300   40      40/ 20/ 22 1016.4F
PORT WASHINGTON  1300   41      50/ 17/ 23 1016.3
MILWAUKEE LAKESH 1330   40      50/ 18/ 19   N/A
S MID LAKE BUOY  1250   41 40   60/ 16/ 19 1013.9F   4/ 5
KENOSHA   LAKESH 1300   42      60/ 20/ 24 1012.5
$$

TC  - TEMPERATURE IN CELSIUS
VSB - VISIBILITY IN STATUTE MILES
WCI - WIND CHILL INDEX
HX  - HEAT INDEX




USA.gov is the U.S. government's official web portal to all federal, state and local government web resources and services.